TITAN 4B DEB, 40528

Orbit data source: Space-Track

TITAN 4B DEB, 40528 is space debris in LEO originally from a launch on Thu, 17 Aug 2000 UTC launched from the Air Force Western Test Range (AFWTR). Debris objects in space refer to the collection of defunct objects orbiting the Earth. Examples of debris include non-operational satellites, rocket bodies, and fragments generated from explosions, collisions, or faulty payload assembly.

Loading next visibility...
Identifier
40528, 2000-047E
Orbit
LEO
Country
Flag of USUS
Related business
Manufacturer
LMSS Denver
Mission
Spacecraft
Bus & Motor
Unknown
Mass
Unknown
Launch date (UTC)
2000-08-17 (25 years ago)
Launch vehicle
Unknown
Launch site
Air Force Western Test Range (AFWTR)
Object type
Payload
Rocket body
Debris
Shape & HBR
Unknown shape, 0.1 m
Radar Cross Section
Small (<0.1 m²)

Expand to show TLE details & history
Last TLE update: 18 hours ago

TLE from 18 hours ago
0 TITAN 4B DEB
1 40528U 00047E   25338.58766823  .00001305  00000-0  12418-3 0  9994
2 40528  67.9952  34.0636 0057431 187.1538 321.9588 14.95668992583522
Epoch: 2025-12-04T14:06Z
TLE epoch observation values (Epoch: 2025-12-04T14:06:14.535Z)
Latitude
28.85296°
Longitude
-83.93224°
Altitude
551.808 km
Speed
7.606 km/s
True Right ascension
13h 25m 04s
True Declination
28° 42' 13"
Sunlit
Object was in daylight at epoch
Visualization orbit readout
Latitude
Unknown
Longitude
Unknown
Altitude
Unknown
Speed
Unknown
Apparent Right ascension
Unknown
Apparent Declination
Unknown
Sunlit
N/A
Visualization observer readout
Local Sidereal Time
06:18:44
Azimuth
Unknown
Elevation
Unknown
Doppler factor
Unknown
Orbital elements
Apogee altitude
618.422 km
Perigee altitude
538.517 km
Semi-major axis
6,956.607 km
Eccentricity
0.00574
Inclination
67.9952°
RAAN
34.0636°
Arg. of periapsis
187.1538°
True anomaly
321.55095°
Mean anomaly
321.9588°
Eccentric anomaly
321.75511°
Mean motion
3.74065 °/min
Orbital period
96.24 mins
BSTAR
0.00012418
Loading maneuver chart data...
Computing Atmospheric mass density...
Loading historical data...
Loading historical data...
Loading historical data...
Loading historical data...
Loading historical data...
Loading historical data...
Loading historical data...
Other satellites on launch #47 in the year 2000 (2000-08-17 UTC)

Documentation

Showing up to 5 results
|